STARLINK-33594, 62770

Orbit data source: Space-Track

STARLINK-33594, 62770 is a payload satellite owned by SpaceX/Seattle (US) in LEO that was launched on Tue, 21 Jan 2025 UTC via an FALCON 9 launch vehicle from the Air Force Western Test Range (AFWTR). Payload-class satellites include a variety of spacecraft equipped with specific instruments for various scientific and technological missions. These include communications satellites like Starlink; space stations such as the ISS; scientific satellites like the Hubble; Earth observation satellites from companies like Planet Labs, Umbra, and HawkEye 360; GPS; miniature CubeSats for education and research; and military/defense satellites.

Loading next visibility...
Identifier
62770, 2025-015N
Orbit
LEO
Country
Flag of USUS
Related business
Manufacturer
SpaceX/Seattle
Mission
Operational Commercial Communications
Bus & Motor
STARLINK V2MO, Unknown motor
Mass
575 kg wet, ~530 kg dry
Launch date (UTC)
2025-01-21 (1 year ago)
Launch vehicle
FALCON 9
Launch site
Air Force Western Test Range (AFWTR)
Object type
Payload
Rocket body
Debris
Shape & HBR
Box + 2 Pan, 17.7 m
Radar Cross Section
36.964 m², Large (>1 m²)

Expand to show TLE details & history
Last TLE update: 11 hours ago

TLE from 11 hours ago
0 STARLINK-33594
1 62770U 25015N   26171.37475675  .00014911  00000-0  49100-3 0  9999
2 62770  53.1580 204.7197 0001167  89.8333 270.2802 15.31720143 80214
Epoch: 2026-06-20T08:59Z
TLE epoch observation values (Epoch: 2026-06-20T08:59:38.983Z)
Latitude
-0.00002°
Longitude
161.21697°
Altitude
471.576 km
Speed
7.631 km/s
True Right ascension
13h 38m 52s
True Declination
0° 00' 00"
Sunlit
Object was in full shadow at epoch
Visualization orbit readout
Latitude
Unknown
Longitude
Unknown
Altitude
Unknown
Speed
Unknown
Apparent Right ascension
Unknown
Apparent Declination
Unknown
Sunlit
N/A
Visualization observer readout
Local Sidereal Time
07:16:21
Azimuth
Unknown
Elevation
Unknown
Doppler factor
Unknown
Orbital elements
Apogee altitude
471.736 km
Perigee altitude
470.138 km
Semi-major axis
6,849.074 km
Eccentricity
0.00012
Inclination
53.158°
RAAN
204.7197°
Arg. of periapsis
89.8333°
True anomaly
270.26683°
Mean anomaly
270.2802°
Eccentric anomaly
270.27351°
Mean motion
3.82909 °/min
Orbital period
94.02 mins
BSTAR
0.000491
Loading maneuver chart data...
Computing Atmospheric mass density...
Loading historical data...
Loading historical data...
Loading historical data...
Loading historical data...
Loading historical data...
Loading historical data...
Loading historical data...

Documentation

Showing up to 5 results
|